Regional Weather Roundup
Issued by NWS

Home | Current Version | Previous Version | Text Only | Print | Product List | Glossary On
Versions: 1 2 3 4 5 6 7 8 9 10 11 12 13 14 15 16 17 18 19 20 21 22 23 24 25 26 27 28 29 30 31 32 33 34 35 36 37 38 39 40 41 42 43 44 45 46 47 48 49 50
000
ASUS43 KOAX 311610
RWRNE

WEATHER ROUNDUP FOR NEBRASKA
NATIONAL WEATHER SERVICE OMAHA NE
1100 AM CDT TUE MAR 31 2015

NOTES: SATELLITE DATA IS BEING USED TO AUGMENT CLOUD COVER ABOVE
       12000 FEET.
       "FAIR" INDICATES FEW OR NO CLOUDS BELOW 12,000 FEET WITH NO
       SIGNIFICANT WEATHER AND/OR OBSTRUCTIONS TO VISIBILITY.

  * THESE STATIONS DO NOT REPORT WEATHER SUCH AS RAIN...SNOW OR FOG.

NEZ001>004-019>022-054>056-311700-
NEBRASKA PANHANDLE

CITY           SKY/WX    TMP DP  RH WIND       PRES   REMARKS
SCOTTSBLUFF    SUNNY     52  30  43 NW6       30.02S
ALLIANCE       SUNNY     64  25  22 SW15      30.00S
CHADRON        SUNNY     60  31  33 W6        29.96F
KIMBALL        SUNNY     63  21  20 W7        30.02S
SIDNEY         SUNNY     59  28  30 VRB5      30.03F
$$

NEZ057>060-069>072-079>082-311700-
SOUTHWEST NEBRASKA

CITY           SKY/WX    TMP DP  RH WIND       PRES   REMARKS
NORTH PLATTE   SUNNY     58  32  37 VRB3      30.04S
IMPERIAL         N/A     62  27  26 S12       30.04F
LEXINGTON      SUNNY     62  32  32 S7        30.04S
MCCOOK         SUNNY     60  26  27 CALM      30.05S
OGALLALA       SUNNY     64  29  27 S12       30.03F
$$

NEZ005>010-023>029-035>040-094-311700-
NORTH CENTRAL NEBRASKA

CITY           SKY/WX    TMP DP  RH WIND       PRES   REMARKS
VALENTINE      SUNNY     66  29  24 SW13      29.97F
AINSWORTH      SUNNY     67  29  23 S16       29.99S
BROKEN BOW     SUNNY     64  34  32 S9        30.03S
O`NEILL        SUNNY     66  34  30 S14       30.00S
ORD            SUNNY     64  30  27 S12       30.02F
THEDFORD       SUNNY     65  30  27 S14       30.02F
$$

NEZ041-046>049-061>064-073>077-083>087-311700-
SOUTH CENTRAL NEBRASKA

CITY           SKY/WX    TMP DP  RH WIND       PRES   REMARKS
GRAND ISLAND   SUNNY     66  30  26 SE9       30.04S
AURORA         SUNNY     65  32  28 S8        30.03S
HASTINGS       SUNNY     64  34  32 S10       30.03S
HEBRON         SUNNY     65  32  28 E7        30.03S
HOLDREGE       SUNNY     64  31  29 SE8       30.04S
KEARNEY *      SUNNY     64  34  32 SE9       30.04S
YORK           SUNNY     64  32  29 S9        30.04S
$$

NEZ011>018-030>034-042>045-311700-
NORTHEAST NEBRASKA

CITY           SKY/WX    TMP DP  RH WIND       PRES   REMARKS
NORFOLK        SUNNY     66  31  27 SW10      30.01F
ALBION         SUNNY     65  30  27 S9        30.03S
BLAIR          SUNNY     64  33  31 SE5       30.03S
COLUMBUS *     SUNNY     63  37  39 SW5       30.05S
FREMONT        SUNNY     64  36  35 CALM      30.03R
TEKAMAH        SUNNY     64  36  35 SE3       30.02S
WAYNE          SUNNY     66  28  23 SW8       30.01F
$$

NEZ050>053-065>068-078-088>093-311700-
SOUTHEAST NEBRASKA

CITY           SKY/WX    TMP DP  RH WIND       PRES   REMARKS
LINCOLN        SUNNY     63  35  35 SE7       30.04R
OMAHA EPPLEY   SUNNY     61  37  41 CALM      30.02S
BEATRICE       SUNNY     67  34  29 SE7       30.03S
FALLS CITY     SUNNY     66  33  29 E7        30.02S
NEBRASKA CITY  SUNNY     65  27  23 SE6       30.03S
PLATTSMOUTH      N/A     66  28  24 SE5       30.03R
$$

NEZ044-045-051>053-067-311700-
OMAHA AREA

CITY           SKY/WX    TMP DP  RH WIND       PRES   REMARKS
OMAHA EPPLEY   SUNNY     61  37  41 CALM      30.02S
BLAIR          SUNNY     64  33  31 SE5       30.03S
FREMONT        SUNNY     64  36  35 CALM      30.03R
MILLARD        SUNNY     64  37  36 S5        30.02S
OFFUTT AFB     SUNNY     62  37  38 VRB2      30.02S
PLATTSMOUTH      N/A     66  28  24 SE5       30.03R
WAHOO          FAIR      64  29  26 S8        30.03R
$$



USA.gov is the U.S. government's official web portal to all federal, state and local government web resources and services.